Volver al catálogo

STARLINK-4499

ActivoComunicacionesVLEO
NORAD 53402·PAYLOAD·🇺🇸 United States

Lanzado Aug 10, 2022 desde Cape Canaveral Space Force Station

Loading…

Próximos Pases (próximas 24 horas)

TLE

ActualizadoSource: CelesTrak SupGP

Época: Sep 14, 2026, 21:48 UTC

1 53402C 22097Q   26257.90881944 -.00032733  00000+0 -96714-3 0  2575
2 53402  53.1599 344.1751 0001186  77.1689 296.8879 15.34406194    14

Sigue STARLINK-4499 en tiempo real con AllMySat

Download on the App Store